Location: Apalco
(33.3585°N, 93.4602°W)
Time: 17:29:37
(UTC+00:00)

Envisat - Pass Details

Date: 06 October 2021
Orbit: 764 x 766 km, 98.2° (Epoch: 19 October)

Event Time Altitude Azimuth Distance (km) Brightness Sun altitude
Rises 10:32:00 0° 25° (NNE) 3,233 6.7 -21.6°
Reaches altitude 10° 10:34:36 10° 37° (NE) 2,303 6.1 -21.1°
Maximum altitude 10:38:59 29° 97° (E) 1,376 5.0 -20.2°
Drops below altitude 10° 10:43:20 10° 156° (SSE) 2,291 5.7 -19.3°
Sets 10:45:54 0° 168° (SSE) 3,213 6.3 -18.8°
